Date String (YYYY-MM-DD hh:mm:ss) UTC,Instrument flags,Ambient pressure (hPa),Sample flow (lpm),Bypass flow (lpm),Sample temperature (°C),Ambient temperature (°C),ASC tube jacket temperature (°C),LED temperature (°C),Box temperature (°C),Sample RH (%),Span deviation,Mass concentration (μg/m³),Mass concentration (μg/m³),Mass concentration (μg/m³)
DateTimeUTC,F1_M11,P_M11,Q1_M11,Q2_M11,T1_M11,T2_M11,T3_M11,T4_M11,T5_M11,U1_M11,ZSPAN_M11,X0_M11,X2_M11,X1_M11
2022-09-30 12:00:00,,0826.4,5.01,0.00,30.4,29.0,00.0,39.2,32.2,16.7,0000.0,0008.79,0004.09,0003.55
2022-09-30 12:01:00,,0826.5,5.01,0.00,30.4,29.0,00.0,39.2,32.2,16.7,0000.0,0009.10,0004.11,0003.55
2022-09-30 12:02:00,,0826.5,4.99,0.00,30.4,29.0,00.0,39.2,32.3,16.7,0000.0,0009.13,0004.12,0003.56
2022-09-30 12:03:00,,0826.5,5.01,0.00,30.4,29.0,00.0,39.2,32.3,16.8,0000.0,0009.05,0004.12,0003.56
2022-09-30 12:04:00,,0826.4,5.01,0.00,30.4,29.0,00.0,39.2,32.3,16.8,0000.0,0008.97,0004.10,0003.56
2022-09-30 12:05:00,,0826.4,4.99,0.00,30.5,29.0,00.0,39.2,32.3,16.8,0000.0,0009.06,0004.13,0003.56
2022-09-30 12:06:00,,0826.5,5.01,0.00,30.5,29.1,00.0,39.2,32.3,16.7,0000.0,0009.06,0004.12,0003.56
2022-09-30 12:07:00,,0826.5,5.01,0.00,30.5,29.1,00.0,39.2,32.3,16.8,0000.0,0009.33,0004.11,0003.57
2022-09-30 12:08:00,,0826.5,4.99,0.00,30.5,29.1,00.0,39.2,32.3,16.7,0000.0,0009.79,0004.11,0003.57
2022-09-30 12:09:00,,0826.5,5.01,0.00,30.5,29.0,00.0,39.3,32.3,16.4,0000.0,0009.46,0004.08,0003.55
2022-09-30 12:10:00,,0826.4,4.99,0.00,30.5,29.0,00.0,39.3,32.3,16.4,0000.0,0009.23,0004.08,0003.54
2022-09-30 12:11:00,,0826.5,5.00,0.00,30.5,29.0,00.0,39.3,32.3,16.2,0000.0,0008.75,0004.05,0003.52
2022-09-30 12:12:00,,0826.5,5.00,0.00,30.5,29.0,00.0,39.3,32.3,16.0,0000.0,0008.19,0003.98,0003.48
2022-09-30 12:13:00,,0826.5,4.99,0.00,30.5,29.0,00.0,39.3,32.3,16.0,0000.0,0008.00,0003.90,0003.43
2022-09-30 12:14:00,,0826.5,4.99,0.00,30.5,29.0,00.0,39.3,32.3,16.1,0000.0,0007.86,0003.85,0003.39
2022-09-30 12:15:00,,0826.5,5.01,0.00,30.5,29.0,00.0,39.3,32.3,16.2,0000.0,0007.81,0003.82,0003.35
2022-09-30 12:16:00,,0826.5,5.00,0.00,30.5,29.0,00.0,39.3,32.3,16.3,0000.0,0007.63,0003.73,0003.31
2022-09-30 12:17:00,,0826.5,4.99,0.00,30.5,29.0,00.0,39.3,32.3,16.4,0000.0,0007.50,0003.65,0003.26
2022-09-30 12:18:00,,0826.5,5.00,0.00,30.5,29.0,00.0,39.3,32.3,16.0,0000.0,0006.68,0003.58,0003.22
2022-09-30 12:19:00,,0826.4,5.00,0.00,30.5,28.9,00.0,39.3,32.3,15.9,0000.0,0005.33,0003.52,0003.19
2022-09-30 12:20:00,,0826.5,4.99,0.00,30.5,28.9,00.0,39.3,32.3,16.2,0000.0,0005.45,0003.51,0003.18
2022-09-30 12:21:00,,0826.4,5.00,0.00,30.5,28.8,00.0,39.3,32.3,16.1,0000.0,0006.27,0003.48,0003.18
2022-09-30 12:22:00,,0826.4,5.01,0.00,30.5,28.8,00.0,39.3,32.2,15.9,0000.0,0006.14,0003.44,0003.16
2022-09-30 12:23:00,,0826.3,5.00,0.00,30.4,28.8,00.0,39.3,32.2,15.8,0000.0,0006.05,0003.42,0003.15
2022-09-30 12:24:00,,0826.3,5.00,0.00,30.4,28.8,00.0,39.3,32.2,15.8,0000.0,0006.05,0003.41,0003.15
2022-09-30 12:25:00,,0826.2,5.01,0.00,30.4,28.8,00.0,39.3,32.2,15.7,0000.0,0005.81,0003.37,0003.14
2022-09-30 12:26:00,,0826.3,4.99,0.00,30.4,28.8,00.0,39.3,32.2,15.7,0000.0,0005.56,0003.34,0003.13
2022-09-30 12:27:00,,0826.3,5.00,0.00,30.4,28.7,00.0,39.3,32.2,15.8,0000.0,0005.59,0003.34,0003.13
2022-09-30 12:28:00,,0826.3,5.00,0.00,30.4,28.7,00.0,39.2,32.1,15.8,0000.0,0005.68,0003.38,0003.12
2022-09-30 12:29:00,,0826.4,5.00,0.00,30.4,28.7,00.0,39.2,32.1,15.8,0000.0,0006.55,0003.38,0003.12
2022-09-30 12:30:00,,0826.3,4.99,0.00,30.4,28.6,00.0,39.2,32.1,15.9,0000.0,0006.53,0003.38,0003.12
2022-09-30 12:31:00,,0826.3,5.01,0.00,30.3,28.6,00.0,39.2,32.1,15.9,0000.0,0006.10,0003.35,0003.07
2022-09-30 12:32:00,,0826.3,5.01,0.00,30.3,28.6,00.0,39.2,32.1,15.8,0000.0,0005.22,0003.33,0003.02
2022-09-30 12:33:00,,0826.4,4.99,0.00,30.3,28.7,00.0,39.2,32.1,15.9,0000.0,0005.21,0003.33,0003.01
2022-09-30 12:34:00,,0826.3,5.01,0.00,30.3,28.8,00.0,39.2,32.1,16.0,0000.0,0005.24,0003.33,0003.04
2022-09-30 12:35:00,,0826.3,5.00,0.00,30.3,28.8,00.0,39.2,32.1,15.9,0000.0,0005.93,0003.34,0003.05
2022-09-30 12:36:00,,0826.3,4.99,0.00,30.4,28.8,00.0,39.2,32.1,15.9,0000.0,0006.21,0003.35,0003.05
2022-09-30 12:37:00,,0826.3,5.00,0.00,30.4,28.8,00.0,39.2,32.1,15.9,0000.0,0006.81,0003.34,0003.04
2022-09-30 12:38:00,,0826.3,5.01,0.00,30.4,28.9,00.0,39.2,32.2,15.9,0000.0,0007.13,0003.32,0003.05
2022-09-30 12:39:00,,0826.3,4.99,0.00,30.4,28.9,00.0,39.2,32.2,15.8,0000.0,0007.03,0003.29,0003.05
2022-09-30 12:40:00,,0826.2,5.01,0.00,30.4,28.9,00.0,39.2,32.2,16.2,0000.0,0006.26,0003.30,0003.05
2022-09-30 12:41:00,,0826.2,5.00,0.00,30.4,28.9,00.0,39.2,32.2,16.1,0000.0,0006.25,0003.29,0003.05
2022-09-30 12:42:00,,0826.2,4.99,0.00,30.4,28.9,00.0,39.2,32.2,16.0,0000.0,0006.24,0003.28,0003.04
2022-09-30 12:43:00,,0826.2,5.00,0.00,30.4,28.9,00.0,39.2,32.2,16.0,0000.0,0006.27,0003.26,0003.04
2022-09-30 12:44:00,,0826.2,5.01,0.00,30.4,28.9,00.0,39.2,32.2,15.9,0000.0,0006.39,0003.26,0003.03
2022-09-30 12:45:00,,0826.2,4.99,0.00,30.4,28.9,00.0,39.2,32.2,15.9,0000.0,0006.43,0003.27,0003.02
2022-09-30 12:46:00,,0826.2,5.01,0.00,30.4,28.9,00.0,39.2,32.2,15.8,0000.0,0005.76,0003.26,0003.00
2022-09-30 12:47:00,,0826.2,5.01,0.00,30.4,28.9,00.0,39.2,32.2,15.8,0000.0,0005.46,0003.27,0003.01
2022-09-30 12:48:00,,0826.2,4.98,0.00,30.4,28.9,00.0,39.2,32.2,15.8,0000.0,0005.13,0003.28,0003.03
2022-09-30 12:49:00,,0826.2,5.01,0.00,30.4,28.9,00.0,39.2,32.2,15.8,0000.0,0004.65,0003.30,0003.04
2022-09-30 12:50:00,,0826.2,5.01,0.00,30.4,28.9,00.0,39.2,32.2,15.8,0000.0,0004.63,0003.31,0003.05
2022-09-30 12:51:00,,0826.2,4.99,0.00,30.4,28.8,00.0,39.2,32.2,15.8,0000.0,0004.58,0003.31,0003.06
2022-09-30 12:52:00,,0826.2,5.01,0.00,30.4,28.8,00.0,39.2,32.2,15.8,0000.0,0004.54,0003.30,0003.07
2022-09-30 12:53:00,,0826.2,4.99,0.00,30.4,28.8,00.0,39.2,32.2,15.9,0000.0,0004.60,0003.32,0003.07
2022-09-30 12:54:00,,0826.2,4.99,0.00,30.4,28.8,00.0,39.2,32.2,16.0,0000.0,0004.57,0003.33,0003.09
2022-09-30 12:55:00,,0826.2,5.02,0.00,30.4,28.8,00.0,39.2,32.2,15.9,0000.0,0004.47,0003.33,0003.10
2022-09-30 12:56:00,,0826.2,4.99,0.00,30.4,28.8,00.0,39.2,32.2,16.0,0000.0,0004.43,0003.32,0003.09
2022-09-30 12:57:00,,0826.2,5.01,0.00,30.4,28.8,00.0,39.2,32.2,15.9,0000.0,0004.57,0003.36,0003.11
2022-09-30 12:58:00,,0826.2,5.01,0.00,30.4,28.9,00.0,39.2,32.2,16.0,0000.0,0004.68,0003.36,0003.12
2022-09-30 12:59:00,,0826.2,4.99,0.00,30.4,28.9,00.0,39.2,32.2,16.0,0000.0,0004.62,0003.37,0003.13
